Sacramento, CA

11:03 AM PDT on June 22, 2017 (GMT -0700)
Sacramento Executive

Weather History for KSAC - September, 2013

Change the Weather History Date:

Friday, September 20, 2013

  Actual Average Record
Temperature  
Mean Temperature 70 °F -  
Max Temperature 83 °F 87 °F 99 °F (2000)
Min Temperature 57 °F 55 °F 43 °F (1978)
Degree Days  
Heating Degree Days 0    
Cooling Degree Days 5    
Growing Degree Days 20 (Base 50)    
Moisture  
Dew Point 51 °F    
Average Humidity 51    
Maximum Humidity 67    
Minimum Humidity 35    
Precipitation  
Precipitation 0.00 in 0.01 in 0.03 in (2007)
Month to date precipitation 0.10 0.16  
Year to date precipitation 4.01 12.11  
Since 1 July precipitation 0.10  
Sea Level Pressure  
Sea Level Pressure 29.77 in    
Wind  
Wind Speed 7 mph (South)    
Max Wind Speed 22 mph    
Max Gust Speed 29 mph    
Visibility 10 miles    
Events      
T = Trace of Precipitation, MM = Missing Value Source: NWS Daily Summary

Daily Weather History Graph

Daily Weather History Graph

Search for Another Location

Airport or City:

Trip Planner

Search our weather history database for the weather conditions in past years. The results will help you decide how hot, cold, wet, or windy it might be!

Date:

Astronomy

Sep. 20, 2013 Rise Set
Actual Time 6:52 AM PDT 7:05 PM PDT
Civil Twilight 6:25 AM PDT 7:32 PM PDT
Nautical Twilight 5:54 AM PDT 8:02 PM PDT
Astronomical Twilight 5:23 AM PDT 8:34 PM PDT
Moon 7:44 PM PDT (9/20) 8:11 AM PDT (9/20)
Length of Visible Light 13h 06m
Length of Day
12h 13m
Full, 98% of the Moon is Illuminated
Sep 20
Full
Sep 26
Last Quarter
Oct 4
New
Oct 11
First Quarter
Oct 18
Full

Hourly Weather History & Observations

Time (PDT) Temp. Heat Index Dew Point Humidity Pressure Visibility Wind Dir Wind Speed Gust Speed Precip Events Conditions
12:53 AM 64.0 °F - 44.1 °F 48% 29.74 in 10.0 mi Calm Calm - N/A   Clear
1:53 AM 61.0 °F - 44.1 °F 54% 29.74 in 10.0 mi SE 3.5 mph - N/A   Clear
2:53 AM 61.0 °F - 44.1 °F 54% 29.73 in 10.0 mi SSE 3.5 mph - N/A   Clear
3:53 AM 62.1 °F - 45.0 °F 53% 29.73 in 10.0 mi South 5.8 mph - N/A   Clear
4:53 AM 62.1 °F - 45.0 °F 53% 29.73 in 10.0 mi South 5.8 mph - N/A   Clear
5:53 AM 60.1 °F - 46.9 °F 62% 29.73 in 10.0 mi South 4.6 mph - N/A   Clear
6:53 AM 57.0 °F - 46.9 °F 69% 29.74 in 10.0 mi SSE 3.5 mph - N/A   Clear
7:53 AM 59.0 °F - 46.9 °F 64% 29.76 in 10.0 mi SSE 4.6 mph - N/A   Clear
8:53 AM 63.0 °F - 48.9 °F 60% 29.77 in 10.0 mi SSW 8.1 mph - N/A   Clear
9:53 AM 66.9 °F - 48.9 °F 52% 29.78 in 10.0 mi South 8.1 mph - N/A   Clear
10:53 AM 72.0 °F - 50.0 °F 46% 29.79 in 10.0 mi South 10.4 mph 19.6 mph N/A   Clear
11:53 AM 73.9 °F - 50.0 °F 43% 29.79 in 10.0 mi SSW 15.0 mph 21.9 mph N/A   Clear
12:53 PM 79.0 °F - 50.0 °F 36% 29.79 in 10.0 mi South 11.5 mph 20.7 mph N/A   Clear
1:53 PM 81.0 °F - 50.0 °F 34% 29.77 in 10.0 mi South 12.7 mph 19.6 mph N/A   Clear
2:53 PM 81.0 °F 80.4 °F 53.1 °F 38% 29.77 in 10.0 mi SW 15.0 mph 20.7 mph N/A   Clear
3:53 PM 82.9 °F 82.0 °F 55.0 °F 38% 29.76 in 10.0 mi SW 17.3 mph 24.2 mph N/A   Clear
4:53 PM 79.0 °F - 57.0 °F 47% 29.76 in 10.0 mi SSW 12.7 mph 21.9 mph N/A   Clear
5:53 PM 73.9 °F - 57.0 °F 55% 29.77 in 10.0 mi SSW 10.4 mph 26.5 mph N/A   Clear
6:53 PM 71.1 °F - 57.0 °F 61% 29.78 in 10.0 mi SW 15.0 mph 26.5 mph N/A   Clear
7:53 PM 68.0 °F - 55.9 °F 65% 29.79 in 10.0 mi SSW 11.5 mph 18.4 mph N/A   Clear
8:53 PM 66.9 °F - 57.0 °F 70% 29.81 in 10.0 mi SW 15.0 mph 24.2 mph N/A   Clear
9:53 PM 66.0 °F - 57.0 °F 73% 29.83 in 10.0 mi South 6.9 mph - N/A   Mostly Cloudy
10:53 PM 64.9 °F - 57.0 °F 75% 29.83 in 10.0 mi South 9.2 mph - N/A   Clear
11:53 PM 64.0 °F - 57.0 °F 78% 29.83 in 10.0 mi SSE 4.6 mph - N/A   Clear